Weather History for Cape Girardeau, MO

Change the Weather History Date:

Friday, November 1, 2013

  Actual Average Record
Temperature  
Mean Temperature 57 °F 53 °F  
Max Temperature 68 °F 65 °F 82 °F (1971)
Min Temperature 45 °F 41 °F 23 °F (1993)
Degree Days  
Heating Degree Days 8 13  
Month to date heating degree days 8 13  
Since 1 July heating degree days 275 316  
Cooling Degree Days 0 0  
Month to date cooling degree days 0 0  
Year to date cooling degree days 1441 1451  
Growing Degree Days 7 (Base 50)    
Moisture  
Dew Point 46 °F    
Average Humidity 68    
Maximum Humidity 93    
Minimum Humidity 42    
Precipitation  
Precipitation 0.00 in 0.13 in 2.62 in (1984)
Month to date precipitation 0.00 0.13  
Year to date precipitation 32.87 38.25  
Sea Level Pressure  
Sea Level Pressure 29.77 in    
Wind  
Wind Speed 8 mph (WSW)    
Max Wind Speed 16 mph    
Max Gust Speed 22 mph    
Visibility 10 miles    
Events      
T = Trace of Precipitation, MM = Missing Value Source: NWS Daily Summary

Daily Weather History Graph

Daily Weather History Graph

Search for Another Location

Airport:

Trip Planner

Search our weather history database for the weather conditions in past years. The results will help you decide how hot, cold, wet, or windy it might be!

Date:

Astronomy

Nov. 01, 2013 Rise Set
Actual Time 7:22 AM CDT 6:00 PM CDT
Civil Twilight 6:55 AM CDT 6:27 PM CDT
Nautical Twilight 6:25 AM CDT 6:57 PM CDT
Astronomical Twilight 5:54 AM CDT 7:28 PM CDT
Moon 5:17 AM CDT (11/1) 4:51 PM CDT (11/1)
Length of Visible Light 11h 31m
Length of Day
10h 37m
Waning Crescent, 4% of the Moon is Illuminated
Nov 1
Waning Crescent
Nov 3
New
Nov 9
First Quarter
Nov 17
Full
Nov 25
Last Quarter

Hourly Weather History & Observations

Time (CDT) Temp. Windchill Dew Point Humidity Pressure Visibility Wind Dir Wind Speed Gust Speed Precip Events Conditions
12:53 AM 53.1 °F - 48.9 °F 86% 29.72 in 10.0 mi WSW 8.1 mph - N/A   Clear
1:53 AM 52.0 °F - 48.0 °F 86% 29.72 in 10.0 mi WSW 5.8 mph - N/A   Clear
2:53 AM 51.1 °F - 48.0 °F 89% 29.73 in 10.0 mi SW 9.2 mph - N/A   Clear
3:53 AM 51.1 °F - 48.0 °F 89% 29.74 in 10.0 mi WSW 8.1 mph - N/A   Clear
4:53 AM 50.0 °F - 48.0 °F 93% 29.73 in 10.0 mi SSW 5.8 mph - N/A   Clear
5:53 AM 50.0 °F - 46.9 °F 89% 29.74 in 10.0 mi SSW 6.9 mph - N/A   Clear
6:53 AM 48.9 °F - 46.9 °F 93% 29.75 in 10.0 mi SSW 8.1 mph - N/A   Clear
7:53 AM 50.0 °F - 48.0 °F 93% 29.77 in 10.0 mi SSW 6.9 mph - N/A   Clear
8:53 AM 53.1 °F - 48.9 °F 86% 29.78 in 10.0 mi SW 5.8 mph - N/A   Clear
9:53 AM 55.9 °F - 50.0 °F 80% 29.77 in 10.0 mi SW 12.7 mph - N/A   Clear
10:53 AM 59.0 °F - 50.0 °F 72% 29.77 in 10.0 mi West 13.8 mph 18.4 mph N/A   Clear
11:53 AM 61.0 °F - 50.0 °F 67% 29.77 in 10.0 mi West 11.5 mph - N/A   Clear
12:53 PM 63.0 °F - 46.9 °F 56% 29.76 in 10.0 mi West 11.5 mph 17.3 mph N/A   Clear
1:53 PM 64.9 °F - 45.0 °F 48% 29.74 in 10.0 mi West 15.0 mph - N/A   Clear
2:53 PM 66.0 °F - 45.0 °F 47% 29.74 in 10.0 mi West 8.1 mph - N/A   Partly Cloudy
3:53 PM 66.9 °F - 43.0 °F 42% 29.74 in 10.0 mi West 9.2 mph - N/A   Partly Cloudy
4:53 PM 64.9 °F - 42.1 °F 43% 29.75 in 10.0 mi West 10.4 mph - N/A   Clear
5:53 PM 59.0 °F - 45.0 °F 60% 29.76 in 10.0 mi WNW 4.6 mph - N/A   Clear
6:53 PM 55.9 °F - 46.0 °F 69% 29.79 in 10.0 mi West 3.5 mph - N/A   Overcast
7:53 PM 54.0 °F - 45.0 °F 72% 29.82 in 10.0 mi NW 6.9 mph - N/A   Clear
8:53 PM 52.0 °F - 44.1 °F 74% 29.84 in 10.0 mi West 4.6 mph - N/A   Clear
9:53 PM 50.0 °F - 42.1 °F 74% 29.86 in 10.0 mi West 5.8 mph - N/A   Clear
10:53 PM 48.0 °F - 42.1 °F 80% 29.87 in 10.0 mi West 4.6 mph - N/A   Partly Cloudy
11:53 PM 46.0 °F 43.9 °F 41.0 °F 83% 29.87 in 10.0 mi West 4.6 mph - N/A   Clear